THY4QS LTFM-LROP

Flight info

Callsign THY4QS
Flight time 0h 46m
Altitude 32000
Route IBLAX1D/35L IBLAX P727 BGS L622 GONGO DCT KOMAN DCT OBUGA
Aircraft A320/M-SDE3FGHIRWY/LB1

Departure

Time 2026-05-04 15:07
Airport İstanbul Airport (LTFM)

Arrival

Time 2026-05-04 15:53
Airport Bucharest Henri Coandă International Airport (LROP)
Time Latitude Longitude Altitude Speed Heading
2026-05-04 14:45 41.26612 28.73466 331 ft 0 kts 70°
2026-05-04 14:57 41.26605 28.73441 333 ft 4 kts 70°
2026-05-04 14:57 41.26595 28.73407 329 ft 4 kts 65°
2026-05-04 14:58 41.26582 28.73377 330 ft 4 kts 40°
2026-05-04 14:58 41.26566 28.73368 329 ft 1 kts 341°
2026-05-04 15:02 41.26574 28.73364 329 ft 3 kts 341°
2026-05-04 15:02 41.26596 28.73343 332 ft 5 kts 308°
2026-05-04 15:03 41.26601 28.73286 332 ft 8 kts 268°
2026-05-04 15:03 41.26599 28.73205 334 ft 10 kts 269°
2026-05-04 15:03 41.26598 28.73117 332 ft 11 kts 269°
2026-05-04 15:03 41.26597 28.73017 334 ft 10 kts 269°
2026-05-04 15:04 41.26596 28.72956 333 ft 0 kts 269°
2026-05-04 15:04 41.26596 28.72943 331 ft 4 kts 269°
2026-05-04 15:04 41.26595 28.72878 332 ft 10 kts 269°
2026-05-04 15:05 41.26593 28.72769 334 ft 13 kts 269°
2026-05-04 15:05 41.26592 28.72637 334 ft 15 kts 269°
2026-05-04 15:05 41.26602 28.72527 330 ft 9 kts 319°
2026-05-04 15:05 41.26627 28.72518 333 ft 0 kts 358°
2026-05-04 15:06 41.26758 28.72513 333 ft 51 kts 359°
2026-05-04 15:06 41.27327 28.72499 332 ft 109 kts 359°
2026-05-04 15:06 41.28240 28.72477 334 ft 152 kts 359°
2026-05-04 15:07 41.30420 28.72459 1505 ft 156 kts
2026-05-04 15:07 41.31525 28.72464 2177 ft 161 kts
2026-05-04 15:07 41.32703 28.72477 2504 ft 182 kts
2026-05-04 15:07 41.34036 28.72491 2830 ft 202 kts 359°
2026-05-04 15:08 41.35465 28.71939 3182 ft 231 kts 331°
2026-05-04 15:08 41.36853 28.70753 3906 ft 240 kts 333°
2026-05-04 15:08 41.38335 28.69722 4897 ft 240 kts 336°
2026-05-04 15:08 41.39839 28.68755 5838 ft 241 kts 336°
2026-05-04 15:09 41.41342 28.67799 6755 ft 242 kts 336°
2026-05-04 15:09 41.42851 28.66823 7640 ft 244 kts 337°
2026-05-04 15:09 41.44401 28.65802 8536 ft 246 kts 337°
2026-05-04 15:10 41.47483 28.63726 10169 ft 254 kts 339°
2026-05-04 15:10 41.49130 28.62613 10459 ft 276 kts 339°
2026-05-04 15:10 41.52788 28.60132 11263 ft 305 kts 338°
2026-05-04 15:11 41.54701 28.58818 11882 ft 311 kts 338°
2026-05-04 15:11 41.56624 28.57489 12556 ft 315 kts 338°
2026-05-04 15:11 41.58597 28.56124 13186 ft 321 kts 338°
2026-05-04 15:11 41.60593 28.54746 13798 ft 326 kts 338°
2026-05-04 15:12 41.62633 28.53338 14353 ft 332 kts 338°
2026-05-04 15:12 41.64702 28.51911 14914 ft 336 kts 338°
2026-05-04 15:12 41.66788 28.50473 15476 ft 339 kts 338°
2026-05-04 15:12 41.68898 28.49018 16051 ft 343 kts 338°
2026-05-04 15:13 41.71028 28.47547 16610 ft 347 kts 337°
2026-05-04 15:13 41.73185 28.46052 17171 ft 351 kts 337°
2026-05-04 15:13 41.75331 28.44564 17721 ft 355 kts 337°
2026-05-04 15:13 41.77544 28.43031 18259 ft 359 kts 338°
2026-05-04 15:14 41.79776 28.41483 18745 ft 362 kts 338°
2026-05-04 15:14 41.82024 28.39926 19266 ft 365 kts 338°
2026-05-04 15:14 41.84290 28.38355 19794 ft 368 kts 338°
2026-05-04 15:14 41.86565 28.36773 20322 ft 370 kts 338°
2026-05-04 15:15 41.88855 28.35181 20841 ft 373 kts 338°
2026-05-04 15:15 41.91179 28.33566 21322 ft 375 kts 338°
2026-05-04 15:15 41.93512 28.31943 21805 ft 378 kts 338°
2026-05-04 15:16 41.98025 28.28179 22741 ft 393 kts 324°
2026-05-04 15:16 41.99897 28.25438 23195 ft 404 kts 312°
2026-05-04 15:16 42.03104 28.19096 24028 ft 412 kts 310°
2026-05-04 15:17 42.04716 28.15897 24427 ft 414 kts 310°
2026-05-04 15:17 42.07938 28.09511 25180 ft 419 kts 310°
2026-05-04 15:17 42.09590 28.06230 25553 ft 421 kts 310°
2026-05-04 15:18 42.11235 28.02956 25916 ft 423 kts 309°
2026-05-04 15:18 42.12893 27.99648 26279 ft 426 kts 309°
2026-05-04 15:18 42.14549 27.96339 26636 ft 428 kts 309°
2026-05-04 15:19 42.17909 27.89631 27363 ft 433 kts 309°
2026-05-04 15:19 42.19580 27.86284 27719 ft 435 kts 309°
2026-05-04 15:19 42.23529 27.80174 28435 ft 429 kts 326°
2026-05-04 15:20 42.25922 27.77905 28755 ft 426 kts 334°
2026-05-04 15:20 42.28535 27.75995 29115 ft 426 kts 336°
2026-05-04 15:20 42.31149 27.74101 29474 ft 429 kts 335°
2026-05-04 15:20 42.33763 27.72191 29831 ft 431 kts 335°
2026-05-04 15:21 42.36401 27.70254 30170 ft 433 kts 335°
2026-05-04 15:21 42.39059 27.68301 30471 ft 435 kts 335°
2026-05-04 15:21 42.44379 27.64383 31298 ft 433 kts 335°
2026-05-04 15:22 42.47002 27.62448 31688 ft 433 kts 335°
2026-05-04 15:22 42.49655 27.60490 31987 ft 435 kts 335°
2026-05-04 15:22 42.54894 27.56620 32052 ft 427 kts 335°
2026-05-04 15:23 42.60017 27.52551 32054 ft 429 kts 328°
2026-05-04 15:23 42.64829 27.47833 32060 ft 429 kts 327°
2026-05-04 15:24 42.74473 27.38323 32048 ft 428 kts 327°
2026-05-04 15:25 42.79302 27.33564 32050 ft 428 kts 327°
2026-05-04 15:26 42.86541 27.26409 32038 ft 429 kts 327°
2026-05-04 15:26 42.93782 27.19220 32035 ft 429 kts 326°
2026-05-04 15:27 43.01013 27.12028 31928 ft 426 kts 326°
2026-05-04 15:28 43.05698 27.07351 31215 ft 414 kts 326°
2026-05-04 15:28 43.08042 27.05013 30698 ft 412 kts 327°
2026-05-04 15:28 43.12680 27.00506 29697 ft 406 kts 329°
2026-05-04 15:29 43.15023 26.98379 29218 ft 402 kts 330°
2026-05-04 15:30 43.24250 26.90163 27435 ft 388 kts 330°
2026-05-04 15:30 43.30903 26.84093 26169 ft 380 kts 329°
2026-05-04 15:31 43.35304 26.80051 25352 ft 375 kts 329°
2026-05-04 15:31 43.37466 26.78067 24950 ft 373 kts 329°
2026-05-04 15:32 43.43892 26.72195 23708 ft 367 kts 329°
2026-05-04 15:32 43.48092 26.68340 22812 ft 361 kts 330°
2026-05-04 15:33 43.51566 26.65145 22096 ft 355 kts 330°
2026-05-04 15:34 43.57649 26.59539 20809 ft 347 kts 330°
2026-05-04 15:34 43.59648 26.57691 20385 ft 345 kts 330°
2026-05-04 15:34 43.63613 26.54018 20042 ft 345 kts 330°
2026-05-04 15:35 43.67612 26.50316 20048 ft 346 kts 330°
2026-05-04 15:35 43.69611 26.48462 20049 ft 346 kts 330°
2026-05-04 15:35 43.71612 26.46605 20041 ft 346 kts 330°
2026-05-04 15:36 43.75605 26.42898 20051 ft 347 kts 330°
2026-05-04 15:36 43.77609 26.41035 20051 ft 347 kts 330°
2026-05-04 15:36 43.79617 26.39167 20051 ft 346 kts 330°
2026-05-04 15:37 43.81617 26.37306 20050 ft 347 kts 330°
2026-05-04 15:37 43.83623 26.35440 20049 ft 347 kts 330°
2026-05-04 15:37 43.85632 26.33566 20051 ft 347 kts 330°
2026-05-04 15:37 43.87635 26.31697 20050 ft 347 kts 330°
2026-05-04 15:38 43.89649 26.29817 19684 ft 351 kts 330°
2026-05-04 15:38 43.91674 26.27926 19097 ft 354 kts 330°
2026-05-04 15:38 43.93541 26.25749 18855 ft 351 kts 315°
2026-05-04 15:38 43.95052 26.23087 18625 ft 350 kts 312°
2026-05-04 15:39 43.96528 26.20417 18390 ft 349 kts 312°
2026-05-04 15:39 43.98003 26.17736 18120 ft 347 kts 312°
2026-05-04 15:39 44.00913 26.12427 17608 ft 352 kts 312°
2026-05-04 15:40 44.02479 26.09583 17331 ft 377 kts 311°
2026-05-04 15:40 44.04093 26.06642 17062 ft 384 kts 311°
2026-05-04 15:40 44.05688 26.03720 16811 ft 384 kts 311°
2026-05-04 15:40 44.07304 26.00748 16532 ft 383 kts 311°
2026-05-04 15:41 44.08906 25.97798 16265 ft 381 kts 311°
2026-05-04 15:41 44.10478 25.94905 16004 ft 379 kts 311°
2026-05-04 15:41 44.12097 25.91932 15773 ft 378 kts 311°
2026-05-04 15:41 44.13681 25.89021 15522 ft 377 kts 311°
2026-05-04 15:42 44.15259 25.86118 15268 ft 375 kts 311°
2026-05-04 15:42 44.16819 25.83243 14773 ft 373 kts 312°
2026-05-04 15:42 44.18378 25.80364 14244 ft 370 kts 312°
2026-05-04 15:42 44.19932 25.77493 13699 ft 367 kts 312°
2026-05-04 15:43 44.21463 25.74666 13091 ft 364 kts 312°
2026-05-04 15:43 44.22970 25.71882 12527 ft 361 kts 312°
2026-05-04 15:43 44.24481 25.69086 11965 ft 358 kts 312°
2026-05-04 15:43 44.26202 25.66690 11394 ft 345 kts 331°
2026-05-04 15:44 44.28354 25.65392 10859 ft 331 kts 352°
2026-05-04 15:44 44.30607 25.64927 10316 ft 321 kts 356°
2026-05-04 15:44 44.32757 25.64569 9780 ft 306 kts 356°
2026-05-04 15:44 44.34837 25.64232 9195 ft 294 kts 356°
2026-05-04 15:45 44.36832 25.63911 8623 ft 284 kts 356°
2026-05-04 15:45 44.38778 25.63598 8057 ft 278 kts 356°
2026-05-04 15:45 44.40693 25.63295 7506 ft 273 kts 356°
2026-05-04 15:45 44.42563 25.63004 6967 ft 267 kts 356°
2026-05-04 15:46 44.44390 25.62921 6429 ft 259 kts
2026-05-04 15:46 44.46042 25.63796 5863 ft 254 kts 32°
2026-05-04 15:46 44.47452 25.65225 5310 ft 252 kts 36°
2026-05-04 15:46 44.48842 25.66730 4758 ft 251 kts 36°
2026-05-04 15:47 44.50221 25.68239 4188 ft 251 kts 37°
2026-05-04 15:47 44.51579 25.69724 3635 ft 250 kts 37°
2026-05-04 15:47 44.52930 25.71239 3093 ft 249 kts 42°
2026-05-04 15:47 44.53787 25.73323 2603 ft 247 kts 77°
2026-05-04 15:48 44.53999 25.75466 2497 ft 229 kts 83°
2026-05-04 15:48 44.54139 25.77590 2495 ft 209 kts 84°
2026-05-04 15:48 44.54445 25.81612 2504 ft 203 kts 82°
2026-05-04 15:49 44.54592 25.83484 2501 ft 191 kts 82°
2026-05-04 15:49 44.54736 25.85324 2543 ft 188 kts 83°
2026-05-04 15:49 44.54878 25.87128 2518 ft 185 kts 83°
2026-05-04 15:49 44.55018 25.88930 2505 ft 184 kts 83°
2026-05-04 15:50 44.55158 25.90722 2430 ft 185 kts 82°
2026-05-04 15:50 44.55296 25.92493 2247 ft 184 kts 83°
2026-05-04 15:50 44.55436 25.94298 2043 ft 185 kts 83°
2026-05-04 15:50 44.55574 25.96072 1836 ft 183 kts 84°
2026-05-04 15:51 44.55711 25.97855 1614 ft 182 kts 84°
2026-05-04 15:51 44.55839 25.99506 1393 ft 168 kts 84°
2026-05-04 15:51 44.55961 26.01105 1228 ft 155 kts 84°
2026-05-04 15:51 44.56073 26.02555 1021 ft 147 kts 84°
2026-05-04 15:52 44.56154 26.03598 883 ft 143 kts 86°
2026-05-04 15:52 44.56259 26.04969 720 ft 140 kts 86°
2026-05-04 15:52 44.56363 26.06329 542 ft 138 kts 85°
2026-05-04 15:52 44.56461 26.07641 374 ft 138 kts 85°
2026-05-04 15:53 44.56553 26.08861 320 ft 103 kts 83°
2026-05-04 15:53 44.56613 26.09629 320 ft 60 kts 84°
2026-05-04 15:53 44.56651 26.10148 322 ft 47 kts 83°
2026-05-04 15:53 44.56680 26.10530 321 ft 32 kts 84°
2026-05-04 15:54 44.56702 26.10722 321 ft 17 kts 66°
2026-05-04 15:54 44.56780 26.10763 319 ft 11 kts 354°
2026-05-04 15:54 44.56860 26.10752 321 ft 11 kts 354°
2026-05-04 15:54 44.56931 26.10739 321 ft 5 kts 352°
2026-05-04 15:55 44.56974 26.10726 321 ft 7 kts 342°
2026-05-04 15:55 44.57017 26.10677 321 ft 9 kts 303°
2026-05-04 15:55 44.57051 26.10594 321 ft 11 kts 294°
2026-05-04 15:55 44.57063 26.10480 321 ft 12 kts 274°
2026-05-04 15:56 44.57059 26.10368 321 ft 12 kts 264°
2026-05-04 15:56 44.57050 26.10253 321 ft 12 kts 264°
2026-05-04 15:56 44.57040 26.10126 321 ft 14 kts 264°
2026-05-04 15:56 44.57030 26.09988 321 ft 12 kts 264°
2026-05-04 15:57 44.57020 26.09862 321 ft 14 kts 264°
2026-05-04 15:57 44.57012 26.09753 321 ft 9 kts 264°
2026-05-04 15:57 44.57004 26.09653 319 ft 11 kts 264°
2026-05-04 15:57 44.56995 26.09530 321 ft 14 kts 264°
2026-05-04 15:58 44.56984 26.09388 321 ft 14 kts 263°
2026-05-04 15:58 44.56972 26.09248 321 ft 13 kts 263°
2026-05-04 15:58 44.56963 26.09115 318 ft 15 kts 264°
2026-05-04 15:58 44.56952 26.08970 321 ft 16 kts 264°
2026-05-04 15:59 44.56939 26.08805 320 ft 18 kts 264°
2026-05-04 15:59 44.56929 26.08681 320 ft 12 kts 263°
2026-05-04 15:59 44.56916 26.08578 319 ft 9 kts 253°
2026-05-04 15:59 44.56898 26.08485 320 ft 9 kts 263°
2026-05-04 16:00 44.56914 26.08413 320 ft 9 kts 316°
2026-05-04 16:00 44.56952 26.08347 320 ft 9 kts 286°
2026-05-04 16:00 44.56950 26.08270 320 ft 7 kts 265°
2026-05-04 16:00 44.56948 26.08228 319 ft 5 kts 272°
2026-05-04 16:01 44.56977 26.08205 320 ft 5 kts 353°
2026-05-04 16:01 44.56985 26.08203 320 ft 2 kts 353°
2026-05-04 16:01 44.57010 26.08199 320 ft 2 kts 354°
2026-05-04 16:01 44.57020 26.08198 320 ft 1 kts 353°
2026-05-04 16:02 44.57027 26.08197 320 ft 1 kts 354°
2026-05-04 16:02 44.57028 26.08196 320 ft 0 kts 354°